THY6CX EDDK-LTFM

Flight info

Callsign THY6CX
Flight time N/A
Altitude 35000
Route KUMIK7K KUMIK L603 TESGA DCT ESATI DCT OSBIT DCT TENLO DCT LAMSI DCT SITNI DCT SASAL DCT SOGMO DCT BABIT DCT ESIRI DCT ETIDA T390 RILEX
Aircraft B738/M-SDE2E3FGHIRWY/LB1

Departure

Time 2026-05-07 18:04
Airport Cologne Bonn Airport (EDDK)

Arrival

Time N/A
Airport İstanbul Airport (LTFM)
Time Latitude Longitude Altitude Speed Heading
2026-05-07 17:31 50.88174 7.11949 231 ft 0 kts 216°
2026-05-07 17:56 50.88178 7.11954 232 ft 4 kts 214°
2026-05-07 17:56 50.88201 7.11975 234 ft 4 kts 200°
2026-05-07 17:56 50.88227 7.11985 234 ft 4 kts 175°
2026-05-07 17:56 50.88249 7.11972 236 ft 3 kts 128°
2026-05-07 17:57 50.88251 7.11969 234 ft 0 kts 126°
2026-05-07 18:00 50.88249 7.11971 205 ft 1 kts 127°
2026-05-07 18:00 50.88222 7.12012 231 ft 11 kts 132°
2026-05-07 18:00 50.88161 7.12137 231 ft 16 kts 126°
2026-05-07 18:01 50.88104 7.12279 233 ft 15 kts 107°
2026-05-07 18:01 50.88056 7.12422 231 ft 14 kts 121°
2026-05-07 18:01 50.88007 7.12558 231 ft 14 kts 119°
2026-05-07 18:01 50.87988 7.12700 233 ft 13 kts 80°
2026-05-07 18:02 50.87997 7.12974 238 ft 12 kts 118°
2026-05-07 18:02 50.87979 7.13007 238 ft 0 kts 137°
2026-05-07 18:03 50.87977 7.13010 238 ft 3 kts 137°
2026-05-07 18:03 50.87790 7.13281 238 ft 78 kts 137°
2026-05-07 18:03 50.87203 7.14133 247 ft 150 kts 137°
2026-05-07 18:03 50.86365 7.15345 837 ft 169 kts 136°
2026-05-07 18:04 50.85489 7.16623 1808 ft 173 kts 136°
2026-05-07 18:04 50.84538 7.17970 2269 ft 204 kts 137°
2026-05-07 18:04 50.83429 7.19548 2667 ft 221 kts 136°
2026-05-07 18:04 50.82262 7.21219 3203 ft 230 kts 132°
2026-05-07 18:05 50.81513 7.23446 3847 ft 232 kts 107°
2026-05-07 18:05 50.81125 7.26059 4122 ft 261 kts 98°
2026-05-07 18:05 50.80876 7.29018 4700 ft 275 kts 95°
2026-05-07 18:05 50.80667 7.31989 5807 ft 269 kts 95°
2026-05-07 18:06 50.80460 7.34954 6697 ft 274 kts 96°
2026-05-07 18:06 50.80308 7.36958 7195 ft 279 kts 96°
2026-05-07 18:06 50.80056 7.40075 8024 ft 284 kts 97°
2026-05-07 18:06 50.79790 7.43183 8905 ft 287 kts 98°
2026-05-07 18:07 50.79519 7.46289 9738 ft 291 kts 98°
2026-05-07 18:07 50.79239 7.49485 10446 ft 300 kts 98°
2026-05-07 18:07 50.78938 7.52891 10667 ft 325 kts 97°
2026-05-07 18:07 50.78615 7.56546 10955 ft 345 kts 97°
2026-05-07 18:08 50.78398 7.60365 11613 ft 352 kts 86°
2026-05-07 18:08 50.78756 7.64183 12463 ft 353 kts 79°
2026-05-07 18:08 50.79232 7.68018 13243 ft 358 kts 78°
2026-05-07 18:08 50.79713 7.71901 14008 ft 363 kts 79°
2026-05-07 18:09 50.80196 7.75856 14735 ft 368 kts 79°
2026-05-07 18:09 50.80683 7.79854 15482 ft 373 kts 79°
2026-05-07 18:09 50.81127 7.83908 16255 ft 376 kts 85°
2026-05-07 18:09 50.80899 7.88031 17023 ft 380 kts 106°
2026-05-07 18:10 50.79850 7.91854 17839 ft 381 kts 120°
2026-05-07 18:10 50.78500 7.95467 18634 ft 382 kts 122°
2026-05-07 18:10 50.77363 7.98370 19222 ft 384 kts 123°
2026-05-07 18:10 50.75947 8.01938 19956 ft 385 kts 123°
2026-05-07 18:11 50.74519 8.05518 20708 ft 386 kts 123°
2026-05-07 18:11 50.73002 8.09037 21251 ft 393 kts 130°
2026-05-07 18:11 50.71156 8.12304 21558 ft 404 kts 135°
2026-05-07 18:11 50.69183 8.15521 22090 ft 410 kts 136°
2026-05-07 18:12 50.67183 8.18735 22734 ft 412 kts 136°
2026-05-07 18:12 50.65178 8.21980 23359 ft 415 kts 135°
2026-05-07 18:12 50.63170 8.25269 23884 ft 419 kts 135°
2026-05-07 18:12 50.61155 8.28602 24371 ft 422 kts 135°
2026-05-07 18:13 50.59131 8.31974 24853 ft 425 kts 134°
2026-05-07 18:13 50.57099 8.35368 25324 ft 428 kts 134°
2026-05-07 18:13 50.55052 8.38791 25775 ft 431 kts 134°
2026-05-07 18:13 50.52991 8.42236 26220 ft 434 kts 134°
2026-05-07 18:14 50.50913 8.45705 26672 ft 437 kts 134°
2026-05-07 18:14 50.48823 8.49187 27114 ft 440 kts 134°
2026-05-07 18:14 50.46719 8.52690 27546 ft 442 kts 134°
2026-05-07 18:14 50.44598 8.56213 27968 ft 445 kts 134°
2026-05-07 18:15 50.42466 8.59749 28369 ft 448 kts 134°
2026-05-07 18:15 50.40315 8.63312 28763 ft 451 kts 134°
2026-05-07 18:15 50.38303 8.67098 29136 ft 454 kts 124°
2026-05-07 18:15 50.36716 8.71378 29513 ft 456 kts 118°
2026-05-07 18:16 50.35225 8.75780 29897 ft 458 kts 117°
2026-05-07 18:16 50.33741 8.80205 30238 ft 460 kts 117°
2026-05-07 18:16 50.32247 8.84637 30619 ft 460 kts 118°
2026-05-07 18:16 50.30741 8.89054 31047 ft 459 kts 118°
2026-05-07 18:17 50.29229 8.93446 31395 ft 460 kts 118°
2026-05-07 18:17 50.27701 8.97850 31724 ft 461 kts 118°
2026-05-07 18:17 50.26161 9.02262 32070 ft 462 kts 118°
2026-05-07 18:18 50.23052 9.11129 32051 ft 465 kts 119°
2026-05-07 18:18 50.19967 9.19894 32063 ft 458 kts 119°
2026-05-07 18:19 50.16890 9.28612 32061 ft 459 kts 119°
2026-05-07 18:19 50.13806 9.37323 32063 ft 459 kts 119°
2026-05-07 18:20 50.10713 9.46029 32058 ft 459 kts 119°
2026-05-07 18:20 50.07608 9.54740 32053 ft 460 kts 119°
2026-05-07 18:21 50.04498 9.63436 32099 ft 462 kts 119°
2026-05-07 18:21 50.02930 9.67809 32410 ft 463 kts 119°
2026-05-07 18:21 50.01367 9.72162 32931 ft 459 kts 120°
2026-05-07 18:21 49.99811 9.76487 33358 ft 458 kts 120°
2026-05-07 18:22 49.98251 9.80815 33691 ft 459 kts 120°
2026-05-07 18:22 49.97218 9.83678 33904 ft 460 kts 120°
2026-05-07 18:22 49.95122 9.89475 34318 ft 460 kts 120°
2026-05-07 18:22 49.93556 9.93799 34635 ft 460 kts 120°
2026-05-07 18:23 49.91986 9.98124 34926 ft 460 kts 120°
2026-05-07 18:23 49.90433 10.02397 35066 ft 463 kts 120°
2026-05-07 18:23 49.88845 10.06760 35068 ft 466 kts 120°
2026-05-07 18:24 49.85665 10.15474 35057 ft 460 kts 120°
2026-05-07 18:24 49.82524 10.24054 35063 ft 457 kts 120°
2026-05-07 18:25 49.79377 10.32619 35066 ft 458 kts 121°
2026-05-07 18:25 49.76218 10.41188 35064 ft 459 kts 121°
2026-05-07 18:26 49.73046 10.49765 35061 ft 459 kts 121°
2026-05-07 18:26 49.69866 10.58337 35051 ft 460 kts 121°
2026-05-07 18:27 49.66676 10.66907 35064 ft 461 kts 121°
2026-05-07 18:27 49.63472 10.75486 35059 ft 462 kts 121°
2026-05-07 18:28 49.60331 10.84131 35052 ft 463 kts 118°
2026-05-07 18:28 49.57397 10.92967 35049 ft 463 kts 118°
2026-05-07 18:29 49.54476 11.01796 35049 ft 462 kts 118°
2026-05-07 18:29 49.51838 11.09768 35049 ft 462 kts 118°
2026-05-07 18:30 49.48912 11.18562 35046 ft 462 kts 118°
2026-05-07 18:30 49.45980 11.27352 35056 ft 462 kts 118°
2026-05-07 18:31 49.43041 11.36134 35059 ft 462 kts 118°
2026-05-07 18:31 49.40096 11.44911 35048 ft 462 kts 118°
2026-05-07 18:32 49.37144 11.53678 35061 ft 463 kts 119°
2026-05-07 18:32 49.34179 11.62453 35063 ft 463 kts 119°
2026-05-07 18:33 49.31207 11.71215 35062 ft 464 kts 119°
2026-05-07 18:33 49.28224 11.79981 35057 ft 464 kts 119°
2026-05-07 18:34 49.25233 11.88744 35066 ft 465 kts 119°
2026-05-07 18:34 49.22231 11.97506 35063 ft 465 kts 119°
2026-05-07 18:35 49.19222 12.06259 35044 ft 465 kts 120°
2026-05-07 18:35 49.16205 12.15006 35054 ft 465 kts 120°
2026-05-07 18:36 49.13177 12.23754 35062 ft 466 kts 120°
2026-05-07 18:36 49.10144 12.32487 35064 ft 466 kts 120°
2026-05-07 18:37 49.07122 12.41159 35045 ft 466 kts 120°
2026-05-07 18:37 49.04074 12.49875 35051 ft 466 kts 120°
2026-05-07 18:38 49.01020 12.58581 35063 ft 466 kts 120°
2026-05-07 18:38 48.97957 12.67283 35061 ft 466 kts 120°
2026-05-07 18:39 48.94886 12.75977 35060 ft 466 kts 120°
2026-05-07 18:39 48.91808 12.84661 35058 ft 467 kts 120°
2026-05-07 18:40 48.88722 12.93341 35052 ft 467 kts 121°
2026-05-07 18:40 48.85630 13.02009 35061 ft 467 kts 121°
2026-05-07 18:41 48.82530 13.10669 35055 ft 467 kts 121°
2026-05-07 18:41 48.79427 13.19310 35062 ft 467 kts 121°
2026-05-07 18:42 48.76315 13.27947 35049 ft 466 kts 121°
2026-05-07 18:42 48.73196 13.36576 35047 ft 466 kts 121°
2026-05-07 18:43 48.70078 13.45174 35060 ft 466 kts 121°
2026-05-07 18:43 48.66970 13.53720 35050 ft 467 kts 121°
2026-05-07 18:44 48.63669 13.62155 35046 ft 465 kts 127°
2026-05-07 18:44 48.59916 13.70096 35058 ft 464 kts 129°
2026-05-07 18:45 48.56101 13.77980 35055 ft 465 kts 129°
2026-05-07 18:45 48.52320 13.85903 35040 ft 466 kts 128°